Norwegian Star — C6FR3 — position and weather

sailwx.info

Track history (hours):
 
Tides and Currents Weather Stations Pressure Air Temp Water Temp Dewpoint Dewpoint Depression Visibility Wind Speed Wind Dir Waves Ship Positions

Norwegian Star

Operator: Norwegian Cruise Line

Last reported at 2020-Jan-25 01:00 UTC. Time now 2020-Jan-25 06:29 UTC.
Position S 54°18' W 071°00'.

Type: Passenger vessel. MMSI: 311082000.

Wind from 310 at 2 knots

Barometer 1004.0 mb

Date/timePositionNaut miles runAvg speedWind from/ knotsBaromVisibWave heightAir tempDewpointWater temp
2020-Jan-25 01:00S 54°18' W 071°00'1212.0 310 / 21004.0
2020-Jan-25 00:00S 54°06' W 071°00'1818.3 350 / 51004.0 9.0
2020-Jan-24 23:00S 53°48' W 070°54'18 1.1 1002.0 10.0
2020-Jan-24 06:00S 53°30' W 070°48'64323216.0 310 / 10999.0 9.0
2020-Jan-24 04:00N 53°42' W 070°54'64563228.0 310 / 5999.0 9.0
2020-Jan-24 02:00S 53°54' W 071°18'19 9.3 280 / 22999.0 9.7
2020-Jan-24 00:00S 53°48' W 071°48'10114.4 310 / 231000.0 9.5
2020-Jan-23 17:00S 55°12' W 073°24'132132.4 310 / 19999.0 10.0
2020-Jan-23 16:00S 53°00' W 073°42'2524.8 310 / 20999.0 1.1 10.0
2020-Jan-23 15:00S 52°48' W 074°18'5714.2 320 / 241000.0 10.7
2020-Jan-23 11:00S 52°12' W 075°30'2412.1 310 / 30995.0 10.0 11.0
2020-Jan-23 09:00S 51°48' W 075°24'3812.7 310 / 41998.0 10.7 12.5
2020-Jan-23 06:00S 51°30' W 074°30'4 3.7 360 / 91005.0 11.0
2020-Jan-23 05:00S 51°30' W 074°24'25 8.4 360 / 91005.0 11.0
2020-Jan-23 02:00S 51°06' W 074°12'1212.0
2020-Jan-23 01:00S 50°54' W 074°12'15 5.0
2020-Jan-22 22:00S 50°54' W 073°48'8 7.6 110 / 71009.0 2.2 8.2 10.8
2020-Jan-22 21:00S 50°54' W 074°00'4120.4 080 / 131009.0 1.1 9.9 11.9
2020-Jan-22 19:00S 50°18' W 074°30'24122412.1 120 / 21010.0 10.9 12.5
2020-Jan-22 18:00S 10°06' W 074°48'23941197.1 110 / 171011.0 11.0
2020-Jan-22 16:00S 50°00' W 075°24'5016.7 110 / 51011.0 13.2
2020-Jan-22 13:00S 49°18' W 076°06'3030.3 050 / 151015.0 12.0 13.3
2020-Jan-22 12:00S 48°48' W 076°00'1818.4 030 / 151016.0 12.0 13.9
2020-Jan-22 11:00S 48°30' W 075°54'3636.0 040 / 121017.0 12.0 13.9
2020-Jan-22 10:00S 47°54' W 075°54'8421.0 020 / 101018.0 12.0 14.0
2020-Jan-22 06:00S 46°30' W 075°48'6722.2 360 / 51019.0 13.0
2020-Jan-22 03:00S 45°30' W 075°06'4715.6 270 / 41021.0 15.0 16.0
2020-Jan-22 00:00S 45°24' W 074°00'51 7.3 240 / 161021.0 16.4 14.0
2020-Jan-21 17:00S 45°30' W 072°48'0 0.0 270 / 81020.010.8 20.8 13.0
2020-Jan-21 16:00S 45°30' W 072°48'30 5.0 010 / 51020.0 20.0
2020-Jan-21 10:00S 45°24' W 073°30'6616.5 250 / 81022.0 14.1 13.7
2020-Jan-21 06:00S 44°18' W 073°24'9648.0 170 / 201021.0 15.0
2020-Jan-21 04:00S 45°54' W 073°24'19348.3 170 / 131021.0 15.0
2020-Jan-21 00:00S 42°42' W 072°54'4221.1 180 / 291020.0 15.0
2020-Jan-20 22:00S 42°00' W 073°00'30 6.1 190 / 191019.010.8 17.0 14.1
2020-Jan-20 17:00S 41°30' W 072°54'0 0.0 150 / 151019.0 16.0
2020-Jan-20 15:00S 41°30' W 072°54'44 4.4 150 / 241019.0 15.0 16.8
2020-Jan-20 05:00S 41°48' W 073°48'1110.8 210 / 101020.0 12.0
2020-Jan-20 04:00S 41°42' W 074°00'4221.1 190 / 131020.0 12.0
2020-Jan-20 02:00S 41°00' W 074°06'9613.7 180 / 261018.0 13.0
2020-Jan-19 19:00S 39°24' W 074°00'2412.2 200 / 351018.0 14.2 15.1
2020-Jan-19 17:00S 39°00' W 074°06'9619.3 190 / 241019.0 14.0
2020-Jan-19 12:00S 37°24' W 073°54'1918.6 180 / 361015.0 11.9 12.2
2020-Jan-19 11:00S 37°06' W 073°48'2814.0 170 / 441014.0 11.0 12.6
2020-Jan-19 09:00S 36°42' W 073°30'5719.1 180 / 311013.0 12.0 13.2
2020-Jan-19 06:00S 35°48' W 073°06'2625.9 180 / 151014.0 14.0
2020-Jan-19 05:00S 35°24' W 072°54'5919.8 180 / 141014.0 14.0
2020-Jan-19 02:00S 34°30' W 072°24'13868.9 190 / 91012.0 15.0 16.0
2020-Jan-19 00:00S 33°42' W 075°00'17024.3 260 / 31012.010.8 15.7 14.1
2020-Jan-18 17:00S 33°36' W 071°36'59 5.4 240 / 41014.0 15.0
2020-Jan-18 06:00S 34°24' W 072°18'2613.0 360 / 51012.0 14.0
2020-Jan-18 04:00S 34°48' W 072°30'9816.4 050 / 51014.0 14.0
2020-Jan-17 22:00S 36°18' W 073°18'2020.4 230 / 31012.0 14.7 13.3
2020-Jan-17 21:00S 36°36' W 073°30'1918.6 170 / 81013.0 14.5 13.1
2020-Jan-17 20:00S 36°54' W 073°36'2612.9 200 / 211013.0 14.2 14.6
2020-Jan-17 18:00S 37°18' W 073°48'1918.6 180 / 221014.0 15.0
2020-Jan-17 17:00S 37°36' W 073°54'9218.4 180 / 221014.0 15.0
2020-Jan-17 12:00S 39°06' W 074°18'1212.0 160 / 291015.0 15.6 15.3
2020-Jan-17 11:00S 39°18' W 074°18'1818.0 180 / 351015.0 14.9 15.1
2020-Jan-17 10:00S 39°36' W 074°18'4816.0 180 / 301016.0 15.0 14.0
2020-Jan-17 07:00S 40°24' W 074°18'3030.0 180 / 241020.0 12.0
2020-Jan-17 06:00S 40°54' W 074°18'4214.1 180 / 191020.0 14.0
2020-Jan-17 03:00S 41°36' W 074°12'4414.7 180 / 301022.0 14.0 14.0
2020-Jan-17 00:00S 41°54' W 073°18'28 3.9 180 / 551022.0 14.0 14.0
2020-Jan-16 17:00S 41°30' W 073°00'0 0.0 170 / 311028.0 15.0
2020-Jan-16 16:00S 41°30' W 073°00'4 2.2 180 / 271028.0
2020-Jan-16 14:00S 41°30' W 072°54'6 1.2 180 / 211026.0 13.0 16.8
2020-Jan-16 09:00S 41°36' W 072°54'1918.5 170 / 151027.0 11.9 15.5
2020-Jan-16 08:00S 41°54' W 073°00'444222.0 180 / 201027.0 12.0 14.6
2020-Jan-16 06:00S 49°18' W 072°54'390390.0 210 / 151028.0 11.0
2020-Jan-16 05:00S 42°48' W 072°54'15614.2 230 / 151027.0 11.0
2020-Jan-15 18:00S 45°24' W 072°54'4 0.4 250 / 131021.0 5.4 12.0
2020-Jan-15 08:00S 45°24' W 073°00'1010.3 280 / 51017.0 9.6 14.5
2020-Jan-15 07:00S 45°18' W 073°12'22 5.5 270 / 141005.0 12.0
2020-Jan-15 03:00S 45°24' W 073°42'1312.6 270 / 131014.0 9.0 13.0
2020-Jan-15 02:00S 45°24' W 074°00'   270 / 141014.0 9.8 13.7
Track history (hours):
 
Tides and Currents Weather Stations Pressure Air Temp Water Temp Dewpoint Dewpoint Depression Visibility Wind Speed Wind Dir Waves Ship Positions

Norwegian Star

Operator: Norwegian Cruise Line

Last reported at 2020-Jan-25 01:00 UTC. Time now 2020-Jan-25 06:29 UTC.
Position S 54°18' W 071°00'.

Type: Passenger vessel. MMSI: 311082000.

Wind from 310 at 2 knots

Barometer 1004.0 mb

Date/timePositionNaut miles runAvg speedWind from/ knotsBaromVisibWave heightAir tempDewpointWater temp
2020-Jan-25 01:00S 54°18' W 071°00'1212.0 310 / 21004.0
2020-Jan-25 00:00S 54°06' W 071°00'1818.3 350 / 51004.0 9.0
2020-Jan-24 23:00S 53°48' W 070°54'18 1.1 1002.0 10.0
2020-Jan-24 06:00S 53°30' W 070°48'64323216.0 310 / 10999.0 9.0
2020-Jan-24 04:00N 53°42' W 070°54'64563228.0 310 / 5999.0 9.0
2020-Jan-24 02:00S 53°54' W 071°18'19 9.3 280 / 22999.0 9.7
2020-Jan-24 00:00S 53°48' W 071°48'10114.4 310 / 231000.0 9.5
2020-Jan-23 17:00S 55°12' W 073°24'132132.4 310 / 19999.0 10.0
2020-Jan-23 16:00S 53°00' W 073°42'2524.8 310 / 20999.0 1.1 10.0
2020-Jan-23 15:00S 52°48' W 074°18'5714.2 320 / 241000.0 10.7
2020-Jan-23 11:00S 52°12' W 075°30'2412.1 310 / 30995.0 10.0 11.0
2020-Jan-23 09:00S 51°48' W 075°24'3812.7 310 / 41998.0 10.7 12.5
2020-Jan-23 06:00S 51°30' W 074°30'4 3.7 360 / 91005.0 11.0
2020-Jan-23 05:00S 51°30' W 074°24'25 8.4 360 / 91005.0 11.0
2020-Jan-23 02:00S 51°06' W 074°12'1212.0
2020-Jan-23 01:00S 50°54' W 074°12'15 5.0
2020-Jan-22 22:00S 50°54' W 073°48'8 7.6 110 / 71009.0 2.2 8.2 10.8
2020-Jan-22 21:00S 50°54' W 074°00'4120.4 080 / 131009.0 1.1 9.9 11.9
2020-Jan-22 19:00S 50°18' W 074°30'24122412.1 120 / 21010.0 10.9 12.5
2020-Jan-22 18:00S 10°06' W 074°48'23941197.1 110 / 171011.0 11.0
2020-Jan-22 16:00S 50°00' W 075°24'5016.7 110 / 51011.0 13.2
2020-Jan-22 13:00S 49°18' W 076°06'3030.3 050 / 151015.0 12.0 13.3
2020-Jan-22 12:00S 48°48' W 076°00'1818.4 030 / 151016.0 12.0 13.9
2020-Jan-22 11:00S 48°30' W 075°54'3636.0 040 / 121017.0 12.0 13.9
2020-Jan-22 10:00S 47°54' W 075°54'8421.0 020 / 101018.0 12.0 14.0
2020-Jan-22 06:00S 46°30' W 075°48'6722.2 360 / 51019.0 13.0
2020-Jan-22 03:00S 45°30' W 075°06'4715.6 270 / 41021.0 15.0 16.0
2020-Jan-22 00:00S 45°24' W 074°00'51 7.3 240 / 161021.0 16.4 14.0
2020-Jan-21 17:00S 45°30' W 072°48'0 0.0 270 / 81020.010.8 20.8 13.0
2020-Jan-21 16:00S 45°30' W 072°48'30 5.0 010 / 51020.0 20.0
2020-Jan-21 10:00S 45°24' W 073°30'6616.5 250 / 81022.0 14.1 13.7
2020-Jan-21 06:00S 44°18' W 073°24'9648.0 170 / 201021.0 15.0
2020-Jan-21 04:00S 45°54' W 073°24'19348.3 170 / 131021.0 15.0
2020-Jan-21 00:00S 42°42' W 072°54'4221.1 180 / 291020.0 15.0
2020-Jan-20 22:00S 42°00' W 073°00'30 6.1 190 / 191019.010.8 17.0 14.1
2020-Jan-20 17:00S 41°30' W 072°54'0 0.0 150 / 151019.0 16.0
2020-Jan-20 15:00S 41°30' W 072°54'44 4.4 150 / 241019.0 15.0 16.8
2020-Jan-20 05:00S 41°48' W 073°48'1110.8 210 / 101020.0 12.0
2020-Jan-20 04:00S 41°42' W 074°00'4221.1 190 / 131020.0 12.0
2020-Jan-20 02:00S 41°00' W 074°06'9613.7 180 / 261018.0 13.0
2020-Jan-19 19:00S 39°24' W 074°00'2412.2 200 / 351018.0 14.2 15.1
2020-Jan-19 17:00S 39°00' W 074°06'9619.3 190 / 241019.0 14.0
2020-Jan-19 12:00S 37°24' W 073°54'1918.6 180 / 361015.0 11.9 12.2
2020-Jan-19 11:00S 37°06' W 073°48'2814.0 170 / 441014.0 11.0 12.6
2020-Jan-19 09:00S 36°42' W 073°30'5719.1 180 / 311013.0 12.0 13.2
2020-Jan-19 06:00S 35°48' W 073°06'2625.9 180 / 151014.0 14.0
2020-Jan-19 05:00S 35°24' W 072°54'5919.8 180 / 141014.0 14.0
2020-Jan-19 02:00S 34°30' W 072°24'13868.9 190 / 91012.0 15.0 16.0
2020-Jan-19 00:00S 33°42' W 075°00'17024.3 260 / 31012.010.8 15.7 14.1
2020-Jan-18 17:00S 33°36' W 071°36'59 5.4 240 / 41014.0 15.0
2020-Jan-18 06:00S 34°24' W 072°18'2613.0 360 / 51012.0 14.0
2020-Jan-18 04:00S 34°48' W 072°30'9816.4 050 / 51014.0 14.0
2020-Jan-17 22:00S 36°18' W 073°18'2020.4 230 / 31012.0 14.7 13.3
2020-Jan-17 21:00S 36°36' W 073°30'1918.6 170 / 81013.0 14.5 13.1
2020-Jan-17 20:00S 36°54' W 073°36'2612.9 200 / 211013.0 14.2 14.6
2020-Jan-17 18:00S 37°18' W 073°48'1918.6 180 / 221014.0 15.0
2020-Jan-17 17:00S 37°36' W 073°54'9218.4 180 / 221014.0 15.0
2020-Jan-17 12:00S 39°06' W 074°18'1212.0 160 / 291015.0 15.6 15.3
2020-Jan-17 11:00S 39°18' W 074°18'1818.0 180 / 351015.0 14.9 15.1
2020-Jan-17 10:00S 39°36' W 074°18'4816.0 180 / 301016.0 15.0 14.0
2020-Jan-17 07:00S 40°24' W 074°18'3030.0 180 / 241020.0 12.0
2020-Jan-17 06:00S 40°54' W 074°18'4214.1 180 / 191020.0 14.0
2020-Jan-17 03:00S 41°36' W 074°12'4414.7 180 / 301022.0 14.0 14.0
2020-Jan-17 00:00S 41°54' W 073°18'28 3.9 180 / 551022.0 14.0 14.0
2020-Jan-16 17:00S 41°30' W 073°00'0 0.0 170 / 311028.0 15.0
2020-Jan-16 16:00S 41°30' W 073°00'4 2.2 180 / 271028.0
2020-Jan-16 14:00S 41°30' W 072°54'6 1.2 180 / 211026.0 13.0 16.8
2020-Jan-16 09:00S 41°36' W 072°54'1918.5 170 / 151027.0 11.9 15.5
2020-Jan-16 08:00S 41°54' W 073°00'444222.0 180 / 201027.0 12.0 14.6
2020-Jan-16 06:00S 49°18' W 072°54'390390.0 210 / 151028.0 11.0
2020-Jan-16 05:00S 42°48' W 072°54'15614.2 230 / 151027.0 11.0
2020-Jan-15 18:00S 45°24' W 072°54'4 0.4 250 / 131021.0 5.4 12.0
2020-Jan-15 08:00S 45°24' W 073°00'1010.3 280 / 51017.0 9.6 14.5
2020-Jan-15 07:00S 45°18' W 073°12'22 5.5 270 / 141005.0 12.0
2020-Jan-15 03:00S 45°24' W 073°42'1312.6 270 / 131014.0 9.0 13.0
2020-Jan-15 02:00S 45°24' W 074°00'   270 / 141014.0 9.8 13.7

Dump ship's entire track history